Flag for U.S.A. Weather past 2 weeks in Salinas, California, U.S.A.

Now
68 °F

Sunny.


Feels Like: 68 °F
Forecast: 53 / 65 °F
Wind: 6 mph from Northwest

Location: Salinas Municipal Airport

Current Time: Dec 22, 2014 at 1:27:28 PM

Latest Report: Dec 22, 2014 at 12:53 PM


Visibility: 10 mi

Pressure: 30.20 "Hg

Humidity: 61%

Dew point: 54 °F

Location of SalinasLocation

Historic Weather in Salinas — Graph

°F

Salinas temperature yesterday

Maximum temperature yesterday: 66 °F (at 11:53 AM)
Minimum temperature yesterday: 55 °F (at 6:03 AM)
Average temperature yesterday: 61 °F

Past Weeks' High & Low Weather Summary

 TemperatureHumidityPressure
High71 °F (Dec 8, 2:53 PM)100% (Dec 11, 1:53 PM)30.35 "Hg (Dec 11, 1:53 PM)
Low48 °F (Dec 13, 12:53 AM)53% (Dec 8, 2:53 PM)29.64 "Hg (Dec 11, 2:53 PM)
Average56 °F80%30.08 "Hg
* Reported Dec 7 11:53 AM — Dec 22 11:53 AM, Salinas, Weather by CustomWeather, © 2014

Note: Actual official high and low records may vary slightly from our data, if they occured in-between our weather recording intervals... More about our weather records

Advertising

Salinas weather history for previous 24 hours

 ConditionsComfort  
Time TempWeatherWind HumidityBarometerVisibility
11:53 AM
Dec 22
67 °FSunny.No wind66%30.24 "Hg10 mi
10:53 AM65 °FSunny.3 mph73%30.27 "Hg10 mi
9:53 AM63 °FSunny.6 mph78%30.29 "Hg10 mi
8:53 AM60 °FFog.7 mph90%30.28 "Hg6 mi
8:03 AM55 °FFog.3 mph94%30.25 "Hg0 mi
7:53 AM56 °FFog.3 mph90%30.27 "Hg0 mi
6:53 AM56 °FFog.3 mph90%30.27 "Hg0 mi
6:01 AM55 °FFog.No wind94%30.24 "Hg0 mi
5:01 AM57 °FFog.7 mph88%30.24 "Hg2 mi
3:53 AM56 °FFog.8 mph90%30.27 "Hg0 mi
2:53 AM58 °FClear.7 mph90%30.27 "Hg8 mi
1:53 AM60 °FPassing clouds.5 mph86%30.28 "Hg10 mi
12:53 AM62 °FOvercast.3 mph80%30.29 "Hg10 mi
11:53 PM
Dec 21
62 °FOvercast.7 mph80%30.29 "Hg10 mi
10:53 PM61 °FOvercast.3 mph87%30.30 "Hg10 mi
9:53 PM62 °FMostly cloudy.5 mph83%30.31 "Hg10 mi
8:53 PM61 °FMostly cloudy.5 mph87%30.30 "Hg10 mi
8:04 PM61 °FPassing clouds.5 mph88%30.28 "Hg10 mi
6:53 PM62 °FMostly cloudy.3 mph83%30.30 "Hg10 mi
5:53 PM62 °FClear.6 mph83%30.29 "Hg10 mi
4:53 PM64 °FScattered clouds.6 mph78%30.28 "Hg10 mi
3:53 PM64 °FPartly sunny.7 mph78%30.28 "Hg10 mi
2:53 PM65 °FOvercast.5 mph70%30.29 "Hg10 mi
1:53 PM65 °FOvercast.7 mph70%30.28 "Hg10 mi
Weather by CustomWeather, © 2014

See weather overviewHow to use our weather pages